When you browse on this site, cookies collect data to enhance your experience and personalize the content and advertising you see.
Visit our Privacy Policy to learn more. By continuing to use the site, you agree to this use of cookies and data.
  • In Portugal
  • List of Countries
  • For 7 days
  • Water Temperature
  • Weather Map
  • Weather Widgets
  • user-avatar
    Login

    Hourly Weather Zalaegerszeg

    Today, 22 September, Sunday

    Time Temperature Precipitation Wind Pressure Humidity
    00:00 +10°C° 0 mm 2 mps 752 mmHg 58%
    01:00 +9°C° 0 mm 2 mps 752 mmHg 58%
    02:00 +9°C° 0 mm 2 mps 752 mmHg 59%
    03:00 +8°C° 0 mm 2 mps 751 mmHg 59%
    04:00 +8°C° 0 mm 2 mps 751 mmHg 59%
    05:00 +8°C° 0 mm 2 mps 751 mmHg 57%
    06:00 +9°C° 0 mm 2 mps 751 mmHg 55%
    07:00 +9°C° 0 mm 2 mps 750 mmHg 53%
    08:00 +12°C° 0 mm 3 mps 750 mmHg 47%
    09:00 +16°C° 0 mm 3 mps 750 mmHg 40%
    10:00 +18°C° 0 mm 4 mps 750 mmHg 34%
    11:00 +19°C° 0 mm 4 mps 749 mmHg 34%
    12:00 +21°C° 0 mm 5 mps 749 mmHg 33%
    13:00 +22°C° 0 mm 5 mps 748 mmHg 32%
    14:00 +22°C° 0 mm 5 mps 748 mmHg 36%
    15:00 +22°C° 0 mm 5 mps 747 mmHg 39%
    16:00 +22°C° 0 mm 5 mps 747 mmHg 43%
    17:00 +20°C° 0 mm 4 mps 747 mmHg 49%
    18:00 +18°C° 0 mm 4 mps 747 mmHg 55%
    19:00 +17°C° 0 mm 3 mps 746 mmHg 60%
    20:00 +16°C° 0 mm 3 mps 746 mmHg 66%
    21:00 +16°C° 0 mm 3 mps 746 mmHg 71%
    22:00 +14°C° 0 mm 3 mps 746 mmHg 76%
    23:00 +14°C° 0 mm 3 mps 746 mmHg 79%

    Tomorrow, 23 September, Monday

    Time Temperature Precipitation Wind Pressure Humidity
    00:00 +14°C° 0 mm 3 mps 746 mmHg 82%
    01:00 +14°C° 0 mm 2 mps 746 mmHg 85%
    02:00 +14°C° 0 mm 2 mps 745 mmHg 86%
    03:00 +13°C° 0 mm 2 mps 745 mmHg 87%
    04:00 +13°C° 0 mm 2 mps 745 mmHg 89%
    05:00 +14°C° 0 mm 2 mps 745 mmHg 86%
    06:00 +14°C° 0 mm 1 mps 745 mmHg 84%
    07:00 +14°C° 0 mm 1 mps 745 mmHg 82%
    08:00 +18°C° 0 mm 1 mps 745 mmHg 73%
    09:00 +20°C° 0 mm 1 mps 745 mmHg 65%
    10:00 +23°C° 0 mm 1 mps 746 mmHg 56%
    11:00 +23°C° 0 mm 1 mps 745 mmHg 53%
    12:00 +24°C° 0 mm 2 mps 745 mmHg 50%
    13:00 +25°C° 0 mm 2 mps 745 mmHg 46%
    14:00 +25°C° 0 mm 3 mps 745 mmHg 47%
    15:00 +25°C° 0 mm 3 mps 745 mmHg 47%
    16:00 +25°C° 0 mm 4 mps 745 mmHg 47%
    17:00 +22°C° 0 mm 4 mps 745 mmHg 53%
    18:00 +21°C° 0 mm 5 mps 745 mmHg 58%
    19:00 +19°C° 0 mm 5 mps 746 mmHg 64%
    20:00 +19°C° 0 mm 5 mps 746 mmHg 65%
    21:00 +17°C° 0 mm 5 mps 746 mmHg 66%
    22:00 +17°C° 0 mm 5 mps 747 mmHg 66%
    23:00 +16°C° 0 mm 5 mps 747 mmHg 67%

    Day after tomorrow, 24 September, Tuesday

    Time Temperature Precipitation Wind Pressure Humidity
    00:00 +16°C° 0 mm 5 mps 747 mmHg 68%
    01:00 +15°C° 0 mm 5 mps 746 mmHg 70%
    02:00 +15°C° 0.2 mm 4 mps 746 mmHg 73%
    03:00 +14°C° 0.2 mm 4 mps 746 mmHg 77%
    04:00 +14°C° 0.2 mm 3 mps 746 mmHg 80%
    05:00 +14°C° 0 mm 4 mps 746 mmHg 80%
    06:00 +14°C° 0 mm 4 mps 746 mmHg 79%
    07:00 +14°C° 0 mm 4 mps 746 mmHg 78%
    08:00 +17°C° 0 mm 4 mps 746 mmHg 72%
    09:00 +19°C° 0 mm 3 mps 746 mmHg 65%
    10:00 +20°C° 0 mm 3 mps 746 mmHg 58%
    11:00 +21°C° 0 mm 3 mps 746 mmHg 55%
    12:00 +21°C° 0 mm 2 mps 746 mmHg 53%
    13:00 +23°C° 0 mm 2 mps 745 mmHg 50%
    14:00 +23°C° 0 mm 2 mps 745 mmHg 51%
    15:00 +22°C° 0 mm 1 mps 744 mmHg 53%
    16:00 +22°C° 0 mm 1 mps 744 mmHg 54%
    17:00 +20°C° 0 mm 1 mps 744 mmHg 62%
    18:00 +19°C° 0 mm 1 mps 744 mmHg 71%
    19:00 +16°C° 0 mm 1 mps 744 mmHg 79%
    20:00 +16°C° 0 mm 1 mps 744 mmHg 80%
    21:00 +15°C° 0 mm 1 mps 744 mmHg 81%
    22:00 +15°C° 0 mm 1 mps 744 mmHg 82%
    23:00 +15°C° 0 mm 1 mps 744 mmHg 84%

    25 September, Wednesday

    Time Temperature Precipitation Wind Pressure Humidity
    00:00 +14°C° 0 mm 1 mps 744 mmHg 86%
    01:00 +14°C° 0 mm 1 mps 744 mmHg 88%
    02:00 +14°C° 0 mm 1 mps 744 mmHg 88%
    03:00 +13°C° 0 mm 1 mps 744 mmHg 88%
    04:00 +13°C° 0 mm 1 mps 744 mmHg 88%
    05:00 +14°C° 0 mm 1 mps 744 mmHg 85%
    06:00 +15°C° 0 mm 1 mps 744 mmHg 82%
    07:00 +15°C° 0 mm 1 mps 744 mmHg 79%
    08:00 +18°C° 0 mm 1 mps 744 mmHg 71%
    09:00 +20°C° 0 mm 1 mps 744 mmHg 64%
    10:00 +22°C° 0 mm 1 mps 744 mmHg 56%
    11:00 +22°C° 0.1 mm 1 mps 744 mmHg 55%
    12:00 +23°C° 0.1 mm 1 mps 744 mmHg 54%
    13:00 +23°C° 0.1 mm 1 mps 744 mmHg 52%
    14:00 +20°C° 1.1 mm 2 mps 744 mmHg 65%
    15:00 +18°C° 1.1 mm 4 mps 744 mmHg 77%
    16:00 +15°C° 1.1 mm 5 mps 744 mmHg 89%
    17:00 +14°C° 0.3 mm 4 mps 744 mmHg 90%
    18:00 +14°C° 0.3 mm 3 mps 745 mmHg 90%
    19:00 +13°C° 0.3 mm 3 mps 745 mmHg 91%
    20:00 +14°C° 0.6 mm 2 mps 745 mmHg 92%
    21:00 +14°C° 0.6 mm 2 mps 746 mmHg 93%
    22:00 +14°C° 0.6 mm 1 mps 746 mmHg 94%
    23:00 +14°C° 0.1 mm 1 mps 746 mmHg 93%

    26 September, Thursday

    Time Temperature Precipitation Wind Pressure Humidity
    00:00 +14°C° 0.1 mm 1 mps 746 mmHg 93%
    01:00 +14°C° 0.1 mm 1 mps 746 mmHg 92%
    02:00 +13°C° 0 mm 1 mps 747 mmHg 92%
    03:00 +13°C° 0 mm 1 mps 747 mmHg 93%
    04:00 +12°C° 0 mm 1 mps 747 mmHg 93%
    05:00 +13°C° 0 mm 1 mps 747 mmHg 92%
    06:00 +13°C° 0 mm 1 mps 748 mmHg 91%
    07:00 +13°C° 0 mm 1 mps 748 mmHg 90%
    08:00 +15°C° 0 mm 2 mps 748 mmHg 81%
    09:00 +17°C° 0 mm 2 mps 749 mmHg 73%
    10:00 +19°C° 0 mm 3 mps 749 mmHg 65%
    11:00 +20°C° 0 mm 3 mps 749 mmHg 60%
    12:00 +21°C° 0 mm 3 mps 748 mmHg 54%
    13:00 +22°C° 0 mm 3 mps 748 mmHg 49%
    14:00 +22°C° 0 mm 3 mps 748 mmHg 50%
    15:00 +21°C° 0 mm 3 mps 748 mmHg 51%
    16:00 +21°C° 0 mm 3 mps 747 mmHg 52%
    17:00 +19°C° 0 mm 3 mps 748 mmHg 61%
    18:00 +17°C° 0 mm 3 mps 748 mmHg 70%
    19:00 +14°C° 0 mm 3 mps 748 mmHg 80%
    20:00 +15°C° 0 mm 2 mps 748 mmHg 83%
    21:00 +14°C° 0 mm 2 mps 748 mmHg 87%
    22:00 +14°C° 0 mm 2 mps 749 mmHg 90%
    23:00 +14°C° 0 mm 2 mps 749 mmHg 92%

    27 September, Friday

    Time Temperature Precipitation Wind Pressure Humidity
    00:00 +13°C° 0 mm 2 mps 749 mmHg 93%
    01:00 +13°C° 0 mm 2 mps 748 mmHg 94%
    02:00 +13°C° 0 mm 2 mps 748 mmHg 94%
    03:00 +13°C° 0 mm 2 mps 748 mmHg 95%
    04:00 +13°C° 0 mm 2 mps 748 mmHg 95%
    05:00 +13°C° 0 mm 2 mps 748 mmHg 93%
    06:00 +13°C° 0 mm 2 mps 748 mmHg 91%
    07:00 +14°C° 0 mm 2 mps 748 mmHg 89%
    08:00 +16°C° 0 mm 2 mps 748 mmHg 80%
    09:00 +18°C° 0 mm 3 mps 748 mmHg 71%
    10:00 +20°C° 0 mm 3 mps 748 mmHg 62%
    11:00 +21°C° 0 mm 3 mps 748 mmHg 59%
    12:00 +23°C° 0 mm 4 mps 747 mmHg 55%
    13:00 +25°C° 0 mm 4 mps 747 mmHg 52%
    14:00 +25°C° 0 mm 4 mps 746 mmHg 53%
    15:00 +23°C° 0 mm 4 mps 746 mmHg 55%
    16:00 +23°C° 0 mm 4 mps 745 mmHg 56%
    17:00 +22°C° 0 mm 4 mps 745 mmHg 64%
    18:00 +20°C° 0 mm 4 mps 745 mmHg 71%
    19:00 +19°C° 0 mm 3 mps 745 mmHg 79%
    20:00 +18°C° 0 mm 3 mps 745 mmHg 79%
    21:00 +18°C° 0 mm 4 mps 745 mmHg 80%
    22:00 +18°C° 0 mm 4 mps 745 mmHg 81%
    23:00 +18°C° 0 mm 4 mps 745 mmHg 78%
    Show more